Time,TemperatureF,DewpointF,PressureIn,WindDirection,WindDirectionDegrees,WindSpeedMPH,WindSpeedGustMPH,Humidity,HourlyPrecipIn,Conditions,Clouds,dailyrainin,SoftwareType,DateUTC
2015-04-25 00:02:00,63.4,39.3,29.85,North,0,0.0,0.0,41,0.00,,,0.00,WUHU216HW,2015-04-25 07:02:00,
2015-04-25 00:07:00,63.0,38.9,29.85,North,0,0.0,0.0,41,0.00,,,0.00,WUHU216HW,2015-04-25 07:07:00,
2015-04-25 00:12:00,62.8,38.7,29.86,North,0,0.0,0.0,41,0.00,,,0.00,WUHU216HW,2015-04-25 07:12:00,
2015-04-25 00:17:00,62.5,38.4,29.86,North,0,0.0,0.0,41,0.00,,,0.00,WUHU216HW,2015-04-25 07:17:00,
2015-04-25 00:22:00,62.1,38.6,29.86,North,0,0.0,0.0,42,0.00,,,0.00,WUHU216HW,2015-04-25 07:22:00,
2015-04-25 00:27:00,61.9,38.5,29.86,North,0,0.0,0.0,42,0.00,,,0.00,WUHU216HW,2015-04-25 07:27:00,
2015-04-25 00:32:00,61.7,38.4,29.86,North,0,0.0,0.0,42,0.00,,,0.00,WUHU216HW,2015-04-25 07:32:00,
2015-04-25 00:37:00,61.2,38.4,29.86,North,0,0.0,0.0,43,0.00,,,0.00,WUHU216HW,2015-04-25 07:37:00,
2015-04-25 00:42:00,61.0,38.3,29.86,North,0,0.0,0.0,43,0.00,,,0.00,WUHU216HW,2015-04-25 07:42:00,
2015-04-25 00:47:00,60.7,37.9,29.86,North,0,0.0,0.0,43,0.00,,,0.00,WUHU216HW,2015-04-25 07:47:00,
2015-04-25 00:52:00,60.3,37.6,29.86,North,0,0.0,0.0,43,0.00,,,0.00,WUHU216HW,2015-04-25 07:52:00,
2015-04-25 00:57:00,59.9,37.9,29.86,North,0,0.0,0.0,44,0.00,,,0.00,WUHU216HW,2015-04-25 07:57:00,
2015-04-25 01:02:00,59.8,37.7,29.86,North,0,0.0,0.0,44,0.00,,,0.00,WUHU216HW,2015-04-25 08:02:00,
2015-04-25 01:07:00,59.8,37.7,29.86,North,0,0.0,0.0,44,0.00,,,0.00,WUHU216HW,2015-04-25 08:07:00,
2015-04-25 01:12:00,59.8,37.7,29.86,North,0,0.0,0.0,44,0.00,,,0.00,WUHU216HW,2015-04-25 08:12:00,
2015-04-25 01:17:00,59.4,37.4,29.86,North,0,0.0,0.0,44,0.00,,,0.00,WUHU216HW,2015-04-25 08:17:00,
2015-04-25 01:22:00,59.4,37.4,29.86,North,0,0.0,0.0,44,0.00,,,0.00,WUHU216HW,2015-04-25 08:22:00,
2015-04-25 01:27:00,59.0,37.6,29.86,North,0,0.0,0.0,45,0.00,,,0.00,WUHU216HW,2015-04-25 08:27:00,
2015-04-25 01:32:00,59.0,37.6,29.86,North,0,0.0,0.0,45,0.00,,,0.00,WUHU216HW,2015-04-25 08:32:00,
2015-04-25 01:37:00,59.2,37.8,29.85,North,0,0.0,0.0,45,0.00,,,0.00,WUHU216HW,2015-04-25 08:37:00,
2015-04-25 01:42:00,59.2,37.8,29.85,North,0,0.0,0.0,45,0.00,,,0.00,WUHU216HW,2015-04-25 08:42:00,
2015-04-25 01:47:00,59.2,37.8,29.85,North,0,0.0,0.0,45,0.00,,,0.00,WUHU216HW,2015-04-25 08:47:00,
2015-04-25 01:52:00,59.0,37.6,29.85,North,0,0.0,0.0,45,0.00,,,0.00,WUHU216HW,2015-04-25 08:52:00,
2015-04-25 01:57:00,58.9,37.4,29.86,North,0,0.0,0.0,45,0.00,,,0.00,WUHU216HW,2015-04-25 08:57:00,
2015-04-25 02:02:00,58.7,37.9,29.85,North,0,0.0,0.0,46,0.00,,,0.00,WUHU216HW,2015-04-25 09:02:00,
2015-04-25 02:07:00,58.5,37.7,29.86,North,0,0.0,0.0,46,0.00,,,0.00,WUHU216HW,2015-04-25 09:07:00,
2015-04-25 02:12:00,58.3,37.5,29.85,North,0,0.0,0.0,46,0.00,,,0.00,WUHU216HW,2015-04-25 09:12:00,
2015-04-25 02:17:00,58.3,37.5,29.86,North,0,0.0,0.0,46,0.00,,,0.00,WUHU216HW,2015-04-25 09:17:00,
2015-04-25 02:22:00,58.3,37.5,29.86,North,0,0.0,0.0,46,0.00,,,0.00,WUHU216HW,2015-04-25 09:22:00,
2015-04-25 02:27:00,58.1,37.4,29.85,North,0,0.0,0.0,46,0.00,,,0.00,WUHU216HW,2015-04-25 09:27:00,
2015-04-25 02:32:00,58.0,37.3,29.85,North,0,0.0,0.0,46,0.00,,,0.00,WUHU216HW,2015-04-25 09:32:00,
2015-04-25 02:37:00,57.8,37.1,29.85,North,0,0.0,0.0,46,0.00,,,0.00,WUHU216HW,2015-04-25 09:37:00,
2015-04-25 02:42:00,57.6,36.9,29.85,North,0,0.0,0.0,46,0.00,,,0.00,WUHU216HW,2015-04-25 09:42:00,
2015-04-25 02:47:00,57.6,37.4,29.85,North,0,0.0,0.0,47,0.00,,,0.00,WUHU216HW,2015-04-25 09:47:00,
2015-04-25 02:52:00,57.6,37.4,29.85,North,0,0.0,0.0,47,0.00,,,0.00,WUHU216HW,2015-04-25 09:52:00,
2015-04-25 02:57:00,57.6,37.4,29.85,North,0,0.0,0.0,47,0.00,,,0.00,WUHU216HW,2015-04-25 09:57:00,
2015-04-25 03:02:00,57.4,37.4,29.85,North,0,0.0,0.0,47,0.00,,,0.00,WUHU216HW,2015-04-25 10:02:00,
2015-04-25 03:07:00,57.4,37.4,29.85,North,0,0.0,0.0,47,0.00,,,0.00,WUHU216HW,2015-04-25 10:07:00,
2015-04-25 03:12:00,57.1,37.0,29.85,North,0,0.0,0.0,47,0.00,,,0.00,WUHU216HW,2015-04-25 10:12:00,
2015-04-25 03:17:00,56.9,36.8,29.85,North,0,0.0,0.0,47,0.00,,,0.00,WUHU216HW,2015-04-25 10:17:00,
2015-04-25 03:22:00,56.7,37.2,29.85,North,0,0.0,0.0,48,0.00,,,0.00,WUHU216HW,2015-04-25 10:22:00,
2015-04-25 03:27:00,56.5,37.0,29.85,North,0,0.0,0.0,48,0.00,,,0.00,WUHU216HW,2015-04-25 10:27:00,
2015-04-25 03:32:00,56.5,37.0,29.85,North,0,0.0,0.0,48,0.00,,,0.00,WUHU216HW,2015-04-25 10:32:00,
2015-04-25 03:37:00,56.3,36.8,29.85,North,0,0.0,0.0,48,0.00,,,0.00,WUHU216HW,2015-04-25 10:37:00,
2015-04-25 03:42:00,56.2,36.6,29.85,North,0,0.0,0.0,48,0.00,,,0.00,WUHU216HW,2015-04-25 10:42:00,
2015-04-25 03:47:00,55.8,36.4,29.85,North,0,0.0,0.0,48,0.00,,,0.00,WUHU216HW,2015-04-25 10:47:00,
2015-04-25 03:52:00,55.6,36.7,29.85,North,0,0.0,0.0,49,0.00,,,0.00,WUHU216HW,2015-04-25 10:52:00,
2015-04-25 03:57:00,55.4,36.6,29.85,North,0,0.0,0.0,49,0.00,,,0.00,WUHU216HW,2015-04-25 10:57:00,
2015-04-25 04:02:00,55.3,36.9,29.85,North,0,0.0,0.0,50,0.00,,,0.00,WUHU216HW,2015-04-25 11:02:00,
2015-04-25 04:07:00,55.4,37.1,29.85,North,0,0.0,0.0,50,0.00,,,0.00,WUHU216HW,2015-04-25 11:07:00,
2015-04-25 04:12:00,55.3,36.9,29.85,North,0,0.0,0.0,50,0.00,,,0.00,WUHU216HW,2015-04-25 11:12:00,
2015-04-25 04:17:00,55.3,36.9,29.84,North,0,0.0,0.0,50,0.00,,,0.00,WUHU216HW,2015-04-25 11:17:00,
2015-04-25 04:22:00,55.1,36.7,29.84,North,0,0.0,0.0,50,0.00,,,0.00,WUHU216HW,2015-04-25 11:22:00,
2015-04-25 04:27:00,55.1,36.7,29.84,North,0,0.0,0.0,50,0.00,,,0.00,WUHU216HW,2015-04-25 11:27:00,
2015-04-25 04:32:00,54.9,36.6,29.84,North,0,0.0,0.0,50,0.00,,,0.00,WUHU216HW,2015-04-25 11:32:00,
2015-04-25 04:37:00,54.7,36.5,29.84,North,0,0.0,0.0,50,0.00,,,0.00,WUHU216HW,2015-04-25 11:37:00,
2015-04-25 04:42:00,54.7,36.5,29.84,North,0,0.0,0.0,50,0.00,,,0.00,WUHU216HW,2015-04-25 11:42:00,
2015-04-25 04:47:00,54.7,36.5,29.84,North,0,0.0,0.0,50,0.00,,,0.00,WUHU216HW,2015-04-25 11:47:00,
2015-04-25 04:52:00,54.7,36.5,29.84,North,0,0.0,0.0,50,0.00,,,0.00,WUHU216HW,2015-04-25 11:52:00,
2015-04-25 04:57:00,54.5,36.3,29.84,North,0,0.0,0.0,50,0.00,,,0.00,WUHU216HW,2015-04-25 11:57:00,
2015-04-25 05:02:00,54.4,36.1,29.84,North,0,0.0,0.0,50,0.00,,,0.00,WUHU216HW,2015-04-25 12:02:00,
2015-04-25 05:07:00,54.4,36.1,29.84,North,0,0.0,0.0,50,0.00,,,0.00,WUHU216HW,2015-04-25 12:07:00,
2015-04-25 05:12:00,54.4,36.1,29.84,North,0,0.0,0.0,50,0.00,,,0.00,WUHU216HW,2015-04-25 12:12:00,
2015-04-25 05:17:00,54.4,36.1,29.84,North,0,0.0,0.0,50,0.00,,,0.00,WUHU216HW,2015-04-25 12:17:00,
2015-04-25 05:22:00,54.4,36.5,29.84,North,0,0.0,0.0,51,0.00,,,0.00,WUHU216HW,2015-04-25 12:22:00,
2015-04-25 05:27:00,54.4,36.5,29.85,North,0,0.0,0.0,51,0.00,,,0.00,WUHU216HW,2015-04-25 12:27:00,
2015-04-25 05:32:00,54.4,36.1,29.85,North,0,0.0,0.0,50,0.00,,,0.00,WUHU216HW,2015-04-25 12:32:00,